Terminal Aerodrome Forecast
Issued by NWS

Home | Current Version | Previous Version | Text Only | Print | Product List | Glossary On
Versions: 1 2 3 4 5 6 7 8 9 10 11 12 13 14 15 16 17 18
000
FTUS41 KCAR 230600 AAA
TAFPQI
TAF AMD
KPQI 230601Z 2306/2406 02005KT P6SM SCT050
      TEMPO 2307/2311 3SM BR SCT002
      AMD LTD TO CLD VIS AND WIND=

USA.gov is the U.S. government's official web portal to all federal, state and local government web resources and services.